Location: Asheville, NC
(35.6000°N, 82.5500°W)
Time: 06:24:06
(UTC-05:00)

XW-2B - Pass Details

Date: 11 February 2018
Orbit: 510 x 531 km, 97.5° (Epoch: 25 February)

Event Time Altitude Azimuth Distance (km) Brightness Sun altitude
Rises 05:32:35 0° 36° (NE) 2,620 ? -22.6°
Reaches altitude 10° 05:35:41 10° 64° (ENE) 1,731 ? -21.9°
Maximum altitude 05:37:28 13° 93° (E) 1,546 ? -21.6°
Drops below altitude 10° 05:39:15 10° 122° (ESE) 1,728 ? -21.2°
Sets 05:42:20 0° 151° (SSE) 2,612 ? -20.6°
